Nashua, NH

8:10 PM EDT on October 14, 2019 (GMT -0400)
Boire

Weather History for KASH - August, 2019

Change the Weather History Date:

Friday, August 2, 2019

  Actual Average Record
Temperature  
Mean Temperature 70 °F -  
Max Temperature 86 °F 83 °F 100 °F (1975)
Min Temperature 55 °F 60 °F 40 °F (1953)
Cooling Degree Days 4    
Growing Degree Days 20 (Base 50)    
Moisture  
Dew Point 55 °F    
Average Humidity 65    
Maximum Humidity 100    
Minimum Humidity 31    
Precipitation  
Precipitation 0.00 in - - ()
Sea Level Pressure  
Sea Level Pressure 30.14 in    
Wind  
Wind Speed 4 mph (NW)    
Max Wind Speed 7 mph    
Max Gust Speed -    
Visibility 10 miles    
Events      
Averages and records for this station are not official NWS values.
T = Trace of Precipitation, MM = Missing Value Source: NWS Daily Summary

Daily Weather History Graph

Daily Weather History Graph

Search for Another Location

Airport or City:

Astronomy

Aug. 02, 2019 Rise Set
Actual Time 5:38 AM EDT 8:05 PM EDT
Civil Twilight 5:06 AM EDT 8:37 PM EDT
Nautical Twilight 4:26 AM EDT 9:17 PM EDT
Astronomical Twilight 3:41 AM EDT 10:01 PM EDT
Moon 7:14 AM EDT (8/2) 9:30 PM EDT (8/2)
Length of Visible Light 15h 31m
Length of Day
14h 27m
Waxing Crescent, 4% of the Moon is Illuminated
Aug 2
Waxing Crescent
Aug 7
First Quarter
Aug 15
Full
Aug 23
Last Quarter
Aug 30
New

Hourly Weather History & Observations

Time (EDT) Temp. Heat Index Dew Point Humidity Pressure Visibility Wind Dir Wind Speed Gust Speed Precip Events Conditions
12:56 AM 61.0 °F - 59.0 °F 93% 30.14 in 10.0 mi WNW 5.8 mph - N/A   Clear
1:56 AM 60.1 °F - 59.0 °F 96% 30.14 in 10.0 mi WNW 4.6 mph - N/A   Clear
2:56 AM 57.9 °F - 57.9 °F 100% 30.15 in 10.0 mi NW 3.5 mph - N/A   Clear
3:56 AM 57.9 °F - 57.0 °F 97% 30.16 in 10.0 mi WNW 3.5 mph - N/A   Clear
4:56 AM 55.0 °F - 55.0 °F 100% 30.16 in 10.0 mi WNW 3.5 mph - N/A   Clear
5:56 AM 55.9 °F - 55.9 °F 100% 30.17 in 10.0 mi NW 4.6 mph - N/A   Clear
6:56 AM 57.9 °F - 55.9 °F 93% 30.17 in 10.0 mi WNW 4.6 mph - N/A   Clear
7:56 AM 63.0 °F - 57.0 °F 81% 30.18 in 10.0 mi NW 3.5 mph - N/A   Clear
8:56 AM 68.0 °F - 57.0 °F 68% 30.19 in 10.0 mi WNW 3.5 mph - N/A   Clear
9:56 AM 73.0 °F - 57.0 °F 57% 30.18 in 7.0 mi Variable 3.5 mph - N/A   Clear
10:56 AM 77.0 °F - 51.1 °F 40% 30.18 in 10.0 mi North 4.6 mph - N/A   Clear
11:56 AM 79.0 °F - 52.0 °F 39% 30.17 in 10.0 mi Variable 4.6 mph - N/A   Clear
12:56 PM 81.0 °F - 50.0 °F 34% 30.15 in 10.0 mi NW 6.9 mph - N/A   Clear
1:56 PM 82.0 °F - 50.0 °F 33% 30.13 in 10.0 mi Variable 4.6 mph - N/A   Clear
2:56 PM 84.0 °F - 50.0 °F 31% 30.12 in 10.0 mi NNW 5.8 mph - N/A   Clear
3:56 PM 82.9 °F - 51.1 °F 33% 30.10 in 10.0 mi WSW 5.8 mph - N/A   Clear
4:56 PM 84.9 °F - 52.0 °F 32% 30.09 in 10.0 mi Variable 3.5 mph - N/A   Clear
5:56 PM 82.9 °F - 52.0 °F 34% 30.09 in 10.0 mi South 4.6 mph - N/A   Clear
6:56 PM 80.1 °F 80.2 °F 55.9 °F 43% 30.09 in 10.0 mi Variable 3.5 mph - N/A   Clear
7:56 PM 73.0 °F - 60.1 °F 64% 30.10 in 10.0 mi Calm Calm - N/A   Clear
8:56 PM 71.1 °F - 61.0 °F 70% 30.11 in 10.0 mi Variable 3.5 mph - N/A   Scattered Clouds
9:56 PM 71.1 °F - 57.9 °F 63% 30.12 in 10.0 mi Calm Calm - N/A   Clear
10:56 PM 66.9 °F - 59.0 °F 76% 30.11 in 10.0 mi Calm Calm - N/A   Clear
11:56 PM 66.0 °F - 59.0 °F 78% 30.11 in 10.0 mi Calm Calm - N/A   Clear